{"data":{"norad_id":69438,"intl_designator":"2026-126U","name":"STARLINK-37783","alt_names":[],"object_type":"PAYLOAD","status":"ACTIVE","operator":null,"country":"US","launch_date":"2026-06-07","launch_site_code":"AFWTR","launch_vehicle":null,"mission":null,"orbit_class":"UNKNOWN","rcs_meters":null,"size_class":null,"mass_kg":null,"dimensions":null,"purposes":["comms"],"wikipedia_slug":null,"has_3d_model":false,"image_url":null,"decayed_at":null,"tle_current":{"epoch":"2026-09-19T09:12:30.714912Z","epoch_age_seconds":123232,"freshness":"FRESH","line1":"1 69438U 26126U   26262.38368883  .00015752  00000+0  48926-3 0  9993","line2":"2 69438  97.2845 123.6406 0002499  87.7233 272.4295 15.33441100 17408","mean_motion":15.334411,"eccentricity":0.0002499,"inclination_deg":97.2845,"raan_deg":123.6406,"arg_perigee_deg":87.7233,"mean_anomaly_deg":272.4295,"bstar":0.00048926,"rev_number":1740,"period_min":93.906443488439,"perigee_km":463.84453958348,"apogee_km":467.2650167342,"semimajor_km":6843.6917781588,"source":"CELESTRAK","updated_at":"2026-09-20T09:00:44.197858Z"}}}